TimeCST,TemperatureF,Dew PointF,Humidity,Sea Level PressureIn,VisibilityMPH,Wind Direction,Wind SpeedMPH,Gust SpeedMPH,PrecipitationIn,Events,Conditions,WindDirDegrees,DateUTC
1:49 AM,6.8,3.2,85,30.33,10.0,WNW,15.0,-,N/A,,Mostly Cloudy,300,2013-03-05 07:49:00
1:52 AM,6.1,3.0,87,30.47,10.0,WNW,15.0,-,0.00,,Mostly Cloudy,300,2013-03-05 07:52:00
2:52 AM,7.0,3.0,84,30.49,10.0,NW,15.0,-,0.00,,Overcast,310,2013-03-05 08:52:00
3:52 AM,10.0,6.1,84,30.49,7.0,NW,9.2,-,0.00,Snow,Light Snow,310,2013-03-05 09:52:00
4:52 AM,10.9,7.0,84,30.49,8.0,NNE,8.1,-,0.00,,Overcast,20,2013-03-05 10:52:00
5:52 AM,10.9,8.1,88,30.51,10.0,NNW,5.8,-,0.00,,Overcast,330,2013-03-05 11:52:00
6:52 AM,10.4,8.6,92,30.38,5.0,Calm,Calm,-,N/A,Snow,Light Snow,0,2013-03-05 12:52:00
7:52 AM,10.9,8.1,88,30.53,4.0,Calm,Calm,-,0.00,Snow,Light Snow,0,2013-03-05 13:52:00
8:52 AM,12.0,8.1,84,30.53,4.0,West,6.9,-,0.00,Snow,Light Snow,280,2013-03-05 14:52:00
9:52 AM,12.9,9.0,84,30.55,8.0,West,5.8,-,0.00,Snow,Light Snow,280,2013-03-05 15:52:00
10:52 AM,14.0,9.0,80,30.54,5.0,WNW,4.6,-,0.00,Snow,Light Snow,300,2013-03-05 16:52:00
11:52 AM,16.0,10.0,77,30.53,6.0,WNW,3.5,-,0.00,Snow,Light Snow,300,2013-03-05 17:52:00
12:52 PM,18.0,10.0,71,30.53,7.0,Calm,Calm,-,0.00,Snow,Light Snow,0,2013-03-05 18:52:00
1:52 PM,19.0,10.0,68,30.52,10.0,Calm,Calm,-,0.00,,Scattered Clouds,0,2013-03-05 19:52:00
2:11 PM,19.4,10.4,68,30.37,10.0,Calm,Calm,-,N/A,,Mostly Cloudy,0,2013-03-05 20:11:00
2:52 PM,19.0,10.0,68,30.51,10.0,Calm,Calm,-,N/A,,Mostly Cloudy,0,2013-03-05 20:52:00
3:52 PM,17.1,10.9,77,30.49,2.5,NW,4.6,-,0.00,Snow,Light Snow,320,2013-03-05 21:52:00
4:29 PM,17.6,12.2,79,30.35,4.0,NW,3.5,-,0.00,Snow,Light Snow,320,2013-03-05 22:29:00
4:52 PM,17.1,12.0,81,30.48,5.0,WNW,3.5,-,0.00,Snow,Light Snow,300,2013-03-05 22:52:00
5:52 PM,17.1,10.9,77,30.46,3.0,ENE,5.8,-,0.00,,Haze,60,2013-03-05 23:52:00
6:52 PM,15.1,10.9,84,30.46,10.0,ENE,4.6,-,0.00,,Overcast,70,2013-03-06 00:52:00
7:13 PM,14.0,10.4,86,30.32,10.0,East,3.5,-,N/A,,Scattered Clouds,100,2013-03-06 01:13:00
7:52 PM,10.9,8.1,88,30.47,10.0,Calm,Calm,-,N/A,,Partly Cloudy,0,2013-03-06 01:52:00
8:14 PM,10.4,8.6,92,30.33,10.0,Calm,Calm,-,N/A,,Mostly Cloudy,0,2013-03-06 02:14:00
8:52 PM,12.0,9.0,88,30.47,7.0,Calm,Calm,-,N/A,,Overcast,0,2013-03-06 02:52:00
9:52 PM,12.0,9.0,88,30.46,5.0,ENE,3.5,-,0.00,Snow,Light Snow,70,2013-03-06 03:52:00
10:52 PM,12.0,9.0,88,30.45,10.0,ENE,3.5,-,0.00,,Overcast,70,2013-03-06 04:52:00
11:52 PM,12.9,10.0,88,30.43,10.0,Calm,Calm,-,N/A,,Overcast,0,2013-03-06 05:52:00